Location: Makanda
(37.6176°N, 89.2090°W)
Time: 19:52:01
(UTC+00:00)

Meteor 1-4 Rocket - Pass Details

Date: 23 September 2019
Orbit: 449 x 504 km, 81.2° (Epoch: 22 October)

Event Time Altitude Azimuth Distance (km) Brightness Sun altitude
Rises 01:55:25 0° 340° (NNW) 2,491 6.7 -24.4°
Reaches altitude 10° 01:57:40 10° 329° (NNW) 1,603 5.8 -24.8°
Maximum altitude 02:00:45 30° 267° (W) 844 4.3 -25.4°
Enters shadow 02:01:25 28° 245° (WSW) 890 4.2 -25.5°
